Weather History for Port Isabel, TX

Change the Weather History Date:

Monday, December 10, 2012

  Actual Average Record
Temperature  
Mean Temperature 64 °F -  
Max Temperature 75 °F - - ()
Min Temperature 53 °F - - ()
Degree Days  
Heating Degree Days 1    
Growing Degree Days 14 (Base 50)    
Moisture  
Dew Point 48 °F    
Average Humidity 63    
Maximum Humidity 93    
Minimum Humidity 37    
Precipitation  
Precipitation 0.01 in - - ()
Sea Level Pressure  
Sea Level Pressure 29.97 in    
Wind  
Wind Speed 13 mph (NNW)    
Max Wind Speed 30 mph    
Max Gust Speed 39 mph    
Visibility 8 miles    
Events Rain    
T = Trace of Precipitation, MM = Missing Value Source: NWS Daily Summary

Daily Weather History Graph

Daily Weather History Graph

Search for Another Location

Airport:

Trip Planner

Search our weather history database for the weather conditions in past years. The results will help you decide how hot, cold, wet, or windy it might be!

Date:

Astronomy

Dec. 10, 2012 Rise Set
Actual Time 7:06 AM CST 5:38 PM CST
Civil Twilight 6:41 AM CST 6:03 PM CST
Nautical Twilight 6:12 AM CST 6:32 PM CST
Astronomical Twilight 5:44 AM CST 7:00 PM CST
Moon 4:01 AM CST (12/10) 3:20 PM CST (12/10)
Length of Visible Light 11h 22m
Length of Day
10h 32m
Waning Crescent, 10% of the Moon is Illuminated
Dec 10
Waning Crescent
Dec 13
New
Dec 19
First Quarter
Dec 28
Full
Jan 4
Last Quarter

Hourly Weather History & Observations

Time (CST) Temp. Dew Point Humidity Pressure Visibility Wind Dir Wind Speed Gust Speed Precip Events Conditions
12:53 AM 75.9 °F 72.0 °F 87% 29.81 in 7.0 mi South 6.9 mph - N/A   Clear
1:53 AM 75.9 °F 72.0 °F 87% 29.81 in 6.0 mi South 5.8 mph - N/A   Clear
2:53 AM 75.0 °F 72.0 °F 90% 29.79 in 6.0 mi South 8.1 mph - N/A   Clear
3:53 AM 75.0 °F 72.0 °F 90% 29.79 in 5.0 mi South 8.1 mph - N/A   Clear
4:53 AM 73.0 °F 71.1 °F 93% 29.78 in 4.0 mi South 5.8 mph - N/A   Clear
5:53 AM 72.0 °F 70.0 °F 93% 29.81 in 3.0 mi Calm Calm - N/A   Mostly Cloudy
6:53 AM 73.0 °F 70.0 °F 90% 29.84 in 4.0 mi NW 4.6 mph - N/A   Overcast
7:53 AM 66.0 °F 63.0 °F 90% 29.90 in 4.0 mi North 28.8 mph 38.0 mph 0.00 in   Overcast
8:40 AM 60.8 °F 57.2 °F 88% 29.96 in 4.0 mi North 27.6 mph 33.4 mph 0.00 in Rain Light Rain
8:53 AM 60.1 °F 55.9 °F 86% 29.97 in 5.0 mi North 29.9 mph 39.1 mph 0.00 in Rain Light Rain
9:25 AM 59.0 °F 53.6 °F 82% 29.99 in 6.0 mi North 29.9 mph 38.0 mph 0.01 in   Haze
9:53 AM 57.9 °F 50.0 °F 75% 30.01 in 7.0 mi North 25.3 mph 34.5 mph 0.01 in   Overcast
10:53 AM 55.9 °F 39.9 °F 55% 30.05 in 9.0 mi North 24.2 mph 31.1 mph N/A   Overcast
11:37 AM 55.4 °F 35.6 °F 47% 30.05 in 10.0 mi NNW 19.6 mph 29.9 mph N/A   Overcast
11:53 AM 55.9 °F 36.0 °F 47% 30.06 in 10.0 mi North 18.4 mph 26.5 mph N/A   Overcast
12:53 PM 55.9 °F 36.0 °F 47% 30.04 in 10.0 mi NNW 20.7 mph 27.6 mph N/A   Overcast
1:53 PM 57.9 °F 34.0 °F 41% 30.04 in 10.0 mi North 23.0 mph 29.9 mph N/A   Overcast
2:53 PM 57.9 °F 32.0 °F 37% 30.03 in 10.0 mi North 18.4 mph - N/A   Overcast
3:53 PM 57.0 °F 30.9 °F 37% 30.03 in 10.0 mi NNW 17.3 mph 26.5 mph N/A   Overcast
4:53 PM 57.0 °F 30.9 °F 37% 30.04 in 10.0 mi North 15.0 mph - N/A   Scattered Clouds
5:53 PM 55.9 °F 34.0 °F 44% 30.04 in 10.0 mi North 10.4 mph - N/A   Partly Cloudy
6:53 PM 54.0 °F 34.0 °F 47% 30.04 in 10.0 mi North 9.2 mph - N/A   Clear
7:53 PM 55.0 °F 36.0 °F 49% 30.05 in 10.0 mi NNW 5.8 mph - N/A   Clear
8:53 PM 55.0 °F 32.0 °F 42% 30.07 in 10.0 mi NNW 11.5 mph - N/A   Clear
9:53 PM 54.0 °F 30.0 °F 40% 30.09 in 10.0 mi NNW 8.1 mph - N/A   Clear
10:53 PM 53.1 °F 30.9 °F 43% 30.10 in 10.0 mi NW 6.9 mph - N/A   Clear
11:53 PM 54.0 °F 32.0 °F 43% 30.09 in 10.0 mi NNW 6.9 mph - N/A   Clear